N308SF KTVY-KSLC

Flight info

Callsign N308SF
Flight time 0h 23m
Altitude 7000
Route KTVY KSLC
Aircraft C172/L-V/N

Departure

Time 2026-04-23 02:56
Airport Bolinder Field Tooele Valley Airport (KTVY)

Arrival

Time 2026-04-23 03:20
Airport Salt Lake City International Airport (KSLC)
Time Latitude Longitude Altitude Speed Heading
2026-04-23 02:48 40.60926 -112.34897 4311 ft 0 kts 330°
2026-04-23 02:52 40.60930 -112.34902 4311 ft 0 kts 277°
2026-04-23 02:52 40.60929 -112.34910 4311 ft 0 kts 257°
2026-04-23 02:52 40.60928 -112.34914 4311 ft 0 kts 252°
2026-04-23 02:53 40.60920 -112.34923 4311 ft 5 kts 196°
2026-04-23 02:53 40.60881 -112.34925 4312 ft 7 kts 192°
2026-04-23 02:53 40.60861 -112.34945 4313 ft 6 kts 259°
2026-04-23 02:53 40.60860 -112.34962 4313 ft 0 kts 266°
2026-04-23 02:54 40.60859 -112.35029 4312 ft 14 kts 276°
2026-04-23 02:55 40.60920 -112.35079 4309 ft 18 kts 341°
2026-04-23 02:55 40.61002 -112.35090 4307 ft 25 kts
2026-04-23 02:55 40.61323 -112.35086 4298 ft 66 kts 360°
2026-04-23 02:55 40.61811 -112.35103 4374 ft 76 kts 355°
2026-04-23 02:56 40.62358 -112.35133 4531 ft 76 kts 351°
2026-04-23 02:56 40.62871 -112.35311 4670 ft 80 kts 339°
2026-04-23 02:56 40.63422 -112.35580 4791 ft 87 kts 337°
2026-04-23 02:56 40.63991 -112.35874 4946 ft 89 kts 342°
2026-04-23 02:57 40.64599 -112.36121 5067 ft 94 kts 341°
2026-04-23 02:57 40.65235 -112.36390 5213 ft 96 kts 339°
2026-04-23 02:57 40.65810 -112.36701 5474 ft 83 kts 332°
2026-04-23 02:57 40.66329 -112.37001 5624 ft 85 kts 340°
2026-04-23 02:58 40.66932 -112.37141 5731 ft 91 kts 353°
2026-04-23 02:58 40.67572 -112.37222 5867 ft 93 kts 353°
2026-04-23 02:58 40.68218 -112.37298 6029 ft 92 kts 352°
2026-04-23 02:58 40.68875 -112.37366 6145 ft 94 kts 10°
2026-04-23 02:59 40.69337 -112.36882 6413 ft 77 kts 53°
2026-04-23 02:59 40.69540 -112.36165 6466 ft 89 kts 82°
2026-04-23 02:59 40.69591 -112.35297 6513 ft 98 kts 91°
2026-04-23 02:59 40.69528 -112.34425 6669 ft 96 kts 92°
2026-04-23 03:00 40.69375 -112.33552 6741 ft 101 kts 109°
2026-04-23 03:00 40.69123 -112.32753 6951 ft 92 kts 112°
2026-04-23 03:00 40.68931 -112.31979 7096 ft 90 kts 98°
2026-04-23 03:00 40.68858 -112.31157 7234 ft 90 kts 83°
2026-04-23 03:01 40.69049 -112.30332 7294 ft 98 kts 64°
2026-04-23 03:01 40.69356 -112.29472 7237 ft 115 kts 65°
2026-04-23 03:01 40.69667 -112.28443 7161 ft 123 kts 69°
2026-04-23 03:01 40.70008 -112.27465 7119 ft 113 kts 62°
2026-04-23 03:02 40.70337 -112.26560 7119 ft 107 kts 63°
2026-04-23 03:02 40.70707 -112.25672 7015 ft 112 kts 60°
2026-04-23 03:02 40.71093 -112.24856 7110 ft 100 kts 55°
2026-04-23 03:02 40.71488 -112.24123 7115 ft 99 kts 52°
2026-04-23 03:03 40.71898 -112.23395 7124 ft 98 kts 50°
2026-04-23 03:03 40.72360 -112.22708 7135 ft 102 kts 45°
2026-04-23 03:03 40.72852 -112.22017 7152 ft 105 kts 48°
2026-04-23 03:03 40.73286 -112.21223 7134 ft 110 kts 59°
2026-04-23 03:04 40.73644 -112.20365 7127 ft 102 kts 60°
2026-04-23 03:04 40.73989 -112.19562 7120 ft 101 kts 56°
2026-04-23 03:04 40.74383 -112.18767 7108 ft 104 kts 56°
2026-04-23 03:04 40.74785 -112.17966 7133 ft 105 kts 55°
2026-04-23 03:05 40.75194 -112.17155 7146 ft 107 kts 55°
2026-04-23 03:05 40.75639 -112.16349 7135 ft 109 kts 52°
2026-04-23 03:05 40.76118 -112.15572 7177 ft 106 kts 45°
2026-04-23 03:05 40.76700 -112.15003 7175 ft 107 kts 27°
2026-04-23 03:06 40.77388 -112.14606 7142 ft 111 kts 18°
2026-04-23 03:06 40.78125 -112.14342 7181 ft 107 kts 10°
2026-04-23 03:06 40.78874 -112.14239 7187 ft 106 kts
2026-04-23 03:06 40.79570 -112.14218 7253 ft 102 kts 358°
2026-04-23 03:07 40.80288 -112.14255 7242 ft 103 kts 356°
2026-04-23 03:07 40.81005 -112.14286 7235 ft 106 kts 356°
2026-04-23 03:07 40.81764 -112.14333 7146 ft 114 kts 356°
2026-04-23 03:07 40.82545 -112.14382 7173 ft 109 kts 355°
2026-04-23 03:08 40.83296 -112.14362 7168 ft 108 kts 16°
2026-04-23 03:08 40.83811 -112.13722 7253 ft 100 kts 61°
2026-04-23 03:08 40.83966 -112.12822 7232 ft 105 kts 98°
2026-04-23 03:08 40.83612 -112.11992 7236 ft 104 kts 140°
2026-04-23 03:09 40.82889 -112.11718 7064 ft 117 kts 188°
2026-04-23 03:09 40.82116 -112.11813 7104 ft 108 kts 182°
2026-04-23 03:09 40.81378 -112.11775 7104 ft 105 kts 182°
2026-04-23 03:09 40.80692 -112.11599 7137 ft 102 kts 150°
2026-04-23 03:10 40.80077 -112.11119 7117 ft 104 kts 154°
2026-04-23 03:10 40.79432 -112.10664 7117 ft 105 kts 152°
2026-04-23 03:10 40.78768 -112.10232 7104 ft 107 kts 154°
2026-04-23 03:10 40.78105 -112.09775 7116 ft 107 kts 152°
2026-04-23 03:11 40.77448 -112.09311 7122 ft 107 kts 153°
2026-04-23 03:11 40.76790 -112.08845 7125 ft 108 kts 151°
2026-04-23 03:11 40.76132 -112.08343 7109 ft 109 kts 151°
2026-04-23 03:11 40.75478 -112.07855 7095 ft 111 kts 151°
2026-04-23 03:12 40.74822 -112.07303 7063 ft 113 kts 145°
2026-04-23 03:12 40.74153 -112.06814 7081 ft 109 kts 154°
2026-04-23 03:12 40.73501 -112.06318 7085 ft 108 kts 150°
2026-04-23 03:12 40.72853 -112.05806 7083 ft 108 kts 152°
2026-04-23 03:13 40.72202 -112.05325 7126 ft 104 kts 150°
2026-04-23 03:13 40.71555 -112.04851 7099 ft 108 kts 151°
2026-04-23 03:13 40.70905 -112.04373 7123 ft 106 kts 153°
2026-04-23 03:13 40.70238 -112.03976 7151 ft 104 kts 155°
2026-04-23 03:14 40.69658 -112.03395 7143 ft 106 kts 136°
2026-04-23 03:14 40.69259 -112.02611 7179 ft 103 kts 102°
2026-04-23 03:14 40.69197 -112.01648 7141 ft 108 kts 93°
2026-04-23 03:14 40.69171 -112.00642 7107 ft 111 kts 91°
2026-04-23 03:15 40.69162 -111.99651 7097 ft 112 kts 90°
2026-04-23 03:15 40.69201 -111.98625 7086 ft 111 kts 85°
2026-04-23 03:15 40.69250 -111.97629 7130 ft 107 kts 91°
2026-04-23 03:15 40.69225 -111.96643 7149 ft 106 kts 91°
2026-04-23 03:16 40.69234 -111.95690 7172 ft 104 kts 77°
2026-04-23 03:16 40.69725 -111.95057 7074 ft 101 kts 16°
2026-04-23 03:16 40.70916 -111.94573 6645 ft 88 kts 353°
2026-04-23 03:17 40.71490 -111.94780 6426 ft 85 kts 335°
2026-04-23 03:17 40.72032 -111.95066 6301 ft 83 kts 338°
2026-04-23 03:17 40.72447 -111.95511 6244 ft 76 kts 307°
2026-04-23 03:17 40.72829 -111.96042 6217 ft 85 kts 332°
2026-04-23 03:18 40.73446 -111.96141 6217 ft 94 kts 358°
2026-04-23 03:18 40.74086 -111.96186 6084 ft 86 kts 359°
2026-04-23 03:18 40.74676 -111.96218 5738 ft 91 kts 353°
2026-04-23 03:18 40.75274 -111.96179 5465 ft 80 kts 12°
2026-04-23 03:19 40.75855 -111.96150 5106 ft 85 kts
2026-04-23 03:19 40.76427 -111.96175 4827 ft 78 kts
2026-04-23 03:19 40.76961 -111.96176 4486 ft 78 kts
2026-04-23 03:19 40.77476 -111.96198 4252 ft 66 kts
2026-04-23 03:20 40.77835 -111.96212 4232 ft 39 kts
2026-04-23 03:20 40.78040 -111.96210 4228 ft 19 kts 355°
2026-04-23 03:20 40.78149 -111.96208 4226 ft 15 kts
2026-04-23 03:20 40.78237 -111.96171 4227 ft 14 kts 70°